Location: Klein M�hlingen
(51.9472°N, 11.7453°E)
Time: 07:36:57
(UTC+00:00)

Cosmos 1570 Rocket - Pass Details

Date: 09 April 2020
Orbit: 763 x 788 km, 74.1° (Epoch: 24 May)

Event Time Altitude Azimuth Distance (km) Brightness Sun altitude
Rises 20:45:11 0° 332° (NNW) 3,294 8.7 -22.1°
Reaches altitude 10° 20:47:37 10° 328° (NNW) 2,359 7.6 -22.3°
Maximum altitude 20:52:51 56° 252° (WSW) 936 4.5 -22.8°
Enters shadow 20:54:30 39° 198° (SSW) 1,157 4.6 -23.0°
